GFSMW_con_lsi_159.txt.gz
Lid_Strength_Index
5 3 4 3 4 3 4 5 4 3 3 4 2 2 2 2 1 1 1 0 1 0 1 1 2 2 2 3 2 2 3 4 4 5 4 3 1 2 2 1 1 1 0
6 5 4 3 3 4 4 4 4 3 3 2 1 1 1 1 1 1 1 1 1 1 1 2 2 2 2 2 2 3 3 4 4 5 5 6 4 3 2 2 2 2 1
6 5 4 4 4 4 3 4 2 2 2 1 1 1 1 2 2 2 1 1 0 0 1 2 2 2 2 1 2 1 2 3 3 3 4 6 7 4 2 2 2 2 2
5 6 6 5 5 5 4 4 2 2 2 3 2 2 3 3 2 2 3 3 2 2 2 2 2 3 4 4 3 3 2 1 3 2 1 2 3 6 6 3 2 4 1
5 6 8 5 3 3 4 3 3 2 2 2 1 2 2 2 2 3 4 3 4 3 3 4 4 5 5 4 5 6 6 5 5 5 5 4 4 5 5 6 5 4 4
6 6 7 5 3 3 3 4 3 1 1 2 2 2 3 3 4 4 5 6 7 7 6 5 6 6 7 7 7 7 7 7 8 7 6 6 6 7 7 7 7 8 6
6 5 5 5 4 3 3 2 2 3 3 4 5 5 6 5 5 7 8 9 9 8 8 7 8 8 8 8 8 9 8 8 8 7 7 7 7 7 8 8 8 8 7
5 5 5 4 4 3 3 4 4 6 6 6 7 7 6 7 8 8 8 9 8 8 7 6 7 7 8 8 9 8 8 8 8 8 8 8 8 8 8 8 8 10 9
8 8 5 4 4 3 4 6 7 7 8 8 8 8 8 8 8 9 8 8 8 6 7 8 9 8 8 8 8 9 8 8 8 8 7 7 7 7 7 8 8 9 10
6 5 4 4 4 5 6 7 7 8 8 8 8 9 8 8 8 7 7 7 7 7 7 8 9 9 9 9 10 9 7 7 7 7 7 7 7 7 7 8 9 9 9
6 5 4 5 7 7 8 8 8 8 9 9 9 9 8 8 7 8 7 7 7 6 7 8 9 9 9 9 9 8 7 7 7 7 6 6 6 7 7 7 8 8 8
6 6 7 8 8 9 8 9 9 10 9 9 9 8 7 8 7 7 7 7 7 7 8 8 8 7 8 8 8 8 8 7 7 7 6 6 5 7 7 7 7 8 7
6 7 8 8 9 9 8 9 10 10 9 8 7 7 8 8 8 8 8 8 8 9 8 8 8 8 8 8 8 8 8 8 7 7 7 7 7 7 5 6 6 6 5
7 8 9 9 9 9 10 10 10 9 8 7 7 8 8 8 8 8 8 8 8 9 8 8 7 7 8 8 8 8 8 8 8 7 7 7 6 5 5 6 6 6 6
10 10 10 11 11 11 11 11 9 8 7 7 8 8 8 8 8 9 8 8 8 7 7 7 8 8 8 8 8 8 9 9 8 8 7 6 4 4 5 6 6 6 6
11 11 11 11 10 10 9 9 9 8 7 7 7 7 8 8 9 9 9 9 9 8 8 8 9 10 8 8 7 8 9 9 9 9 8 7 5 5 5 5 5 5 6
11 10 10 10 10 9 9 9 8 7 7 7 7 8 8 9 9 9 9 9 10 9 9 10 10 10 10 9 8 7 9 9 9 9 8 7 5 6 7 6 5 5 5
9 9 9 9 9 10 9 8 7 7 7 8 8 8 9 9 9 9 10 10 10 10 10 10 10 11 10 9 9 8 9 9 9 7 6 6 6 6 7 7 7 6 6
9 8 8 9 9 9 8 7 8 7 8 8 9 9 9 10 10 10 11 10 10 10 9 10 10 11 11 9 9 9 9 9 9 7 6 6 7 8 8 7 7 7 7
8 9 9 10 9 9 8 8 8 8 9 8 8 9 9 9 10 11 10 10 10 9 8 9 10 9 11 9 10 10 10 10 9 9 8 7 7 8 9 9 8 8 7
9 10 9 10 9 8 8 9 9 9 9 8 8 9 10 10 10 11 11 10 11 11 11 11 11 11 10 10 10 10 11 11 10 9 8 7 8 9 9 9 9 9 8
9 9 9 9 9 8 8 9 9 9 8 9 9 9 10 9 10 11 12 11 11 12 12 12 12 12 11 9 10 10 10 9 10 9 9 8 9 9 10 9 9 9 8
9 9 9 10 9 9 8 9 9 9 9 10 11 10 10 10 11 12 12 12 12 12 12 12 13 13 12 11 10 10 10 9 9 9 8 9 10 10 10 10 9 9 9
9 9 9 10 10 9 8 9 8 8 9 11 11 11 12 12 12 12 12 12 13 13 13 12 13 13 13 12 11 11 11 9 9 9 10 10 10 10 10 11 10 10 10
10 9 9 9 9 9 9 9 8 9 10 11 11 12 12 12 13 13 12 12 13 12 13 13 13 13 13 13 12 12 12 11 11 11 12 12 13 13 13 12 12 11 11
10 10 9 9 9 9 9 9 9 10 11 12 12 12 13 13 13 13 13 11 11 11 12 12 11 12 12 12 12 11 11 12 12 13 14 14 14 14 14 14 13 13 12

GFSMW_con_lsi_162.txt.gz
Lid_Strength_Index
4 3 3 2 2 3 3 3 3 3 2 2 2 2 2 1 0 1 1 0 -0 0 0 0 0 1 2 1 1 1 2 2 3 3 2 1 1 1 1 -0 0 0 -0
5 4 3 3 3 3 3 3 4 3 2 2 2 1 1 1 1 0 0 0 0 1 1 1 2 2 1 1 1 1 2 1 2 3 3 5 3 1 1 0 0 1 -0
6 5 4 4 3 3 3 5 4 3 2 2 2 1 1 1 1 1 1 1 1 1 1 1 1 2 2 2 3 2 1 3 1 1 3 6 6 4 1 1 1 2 2
5 5 4 5 4 4 5 5 5 4 4 3 2 2 2 3 2 1 1 1 2 2 3 3 3 4 4 5 4 4 3 1 4 1 2 1 2 5 6 2 1 3 3
6 5 4 4 5 5 5 5 5 4 2 1 1 2 2 2 2 2 3 5 5 5 5 5 6 6 6 6 7 6 6 5 4 4 4 3 3 4 6 6 6 5 3
6 5 5 4 6 6 5 4 3 2 1 1 1 1 2 2 3 5 6 7 7 7 6 6 6 6 6 6 7 6 5 5 5 5 5 6 6 6 6 6 7 7 4
5 5 6 5 6 3 3 3 2 3 4 5 5 4 4 5 6 8 9 9 8 7 6 6 6 6 7 6 6 6 6 6 6 6 6 5 5 5 5 6 7 7 6
5 6 7 6 4 3 3 2 4 6 7 7 7 7 7 8 8 8 8 8 7 6 5 7 8 6 6 6 7 7 7 6 6 6 6 6 5 5 6 6 8 8 7
6 5 4 4 3 3 3 5 7 8 9 9 8 9 8 8 8 7 6 6 6 7 7 7 7 7 7 7 6 6 6 6 6 6 6 5 5 5 6 6 6 8 9
6 5 4 4 3 5 7 8 8 9 9 9 9 8 8 7 7 6 6 6 6 7 7 7 8 8 7 7 7 7 6 6 6 5 5 5 5 5 5 5 6 6 7
6 5 4 6 7 9 9 9 9 10 10 9 8 8 7 7 6 6 6 6 7 7 7 7 8 7 7 7 7 7 6 6 6 5 5 5 4 5 5 5 5 6 6
6 6 7 8 9 10 10 10 10 10 9 9 8 8 7 7 7 7 7 7 8 7 8 7 7 7 7 7 7 7 7 7 6 6 5 5 5 5 5 5 6 6 5
7 7 8 9 9 9 10 9 10 10 10 9 8 7 7 7 8 8 7 8 8 8 7 7 7 7 7 7 7 7 7 7 6 6 6 5 5 5 5 5 5 5 5
8 9 9 9 9 10 10 11 11 10 9 8 7 7 8 8 8 8 8 8 8 8 7 7 8 8 8 8 7 7 7 6 6 6 6 5 4 5 5 5 5 5 5
8 9 9 10 10 10 10 11 11 9 8 7 7 8 8 8 8 8 8 7 7 7 7 8 8 8 8 8 7 7 7 7 6 6 6 5 4 4 5 5 5 5 6
8 9 10 10 11 11 11 11 10 9 7 7 8 7 8 8 8 8 8 8 8 8 8 8 9 9 8 9 7 7 7 7 7 6 6 5 5 5 6 5 5 5 6
9 10 10 11 11 11 11 10 9 7 7 7 7 8 8 8 8 8 8 9 9 9 9 9 9 9 9 9 9 7 7 7 7 6 5 5 5 5 6 6 6 5 5
10 11 11 11 11 10 10 8 7 7 7 8 8 8 8 9 9 9 9 9 9 9 9 9 9 9 8 9 9 8 7 7 6 6 5 6 6 6 7 7 6 6 6
11 12 11 11 10 9 7 7 8 7 8 8 8 8 9 9 9 9 9 9 9 9 9 9 9 9 9 10 10 9 7 7 7 6 6 6 7 8 9 7 8 7 6
11 11 11 10 9 8 7 8 8 8 8 8 8 8 8 9 9 9 9 9 9 9 8 9 9 9 9 10 10 9 8 8 8 7 7 7 8 10 10 8 9 9 8
11 10 9 9 9 8 8 8 8 8 8 8 8 8 9 9 9 10 10 10 10 11 10 10 10 9 10 9 10 10 9 9 8 8 8 8 9 10 10 10 9 10 8
10 10 10 10 9 8 8 8 9 8 8 8 8 9 8 8 10 10 11 11 11 11 10 10 10 10 10 10 10 11 10 9 9 9 9 9 10 11 11 10 11 10 9
10 10 9 9 8 8 8 9 9 8 9 9 9 9 9 10 10 11 11 12 11 11 10 11 11 10 10 10 11 11 11 9 9 9 10 11 11 11 10 11 11 10 10
10 9 9 9 9 9 8 8 9 8 9 10 10 10 11 11 11 11 11 11 11 11 11 11 11 11 10 10 10 10 10 10 10 10 11 11 11 11 11 11 10 10 10
10 9 9 9 9 8 9 8 8 9 9 10 10 10 11 12 12 12 12 12 12 11 11 11 11 11 11 11 11 11 12 11 12 11 12 12 12 12 12 12 11 11 11
10 9 9 9 9 9 9 9 9 9 9 10 11 10 12 12 12 12 12 12 12 11 12 11 11 10 11 12 11 12 13 13 13 13 14 14 14 14 14 13 13 12 12

GFSMW_con_lsi_165.txt.gz
Lid_Strength_Index
3 3 2 2 2 1 1 1 1 0 0 1 1 1 1 0 -0 -0 -0 0 -0 -1 -0 -0 -0 -0 0 0 0 0 1 1 0 1 1 1 -0 0 -0 -0 -0 -1 -1
5 4 3 2 2 2 1 1 1 0 0 0 0 0 1 0 0 -1 0 1 1 -0 -0 -0 0 0 0 0 0 0 1 1 0 2 2 4 2 1 0 -0 -0 -0 2
5 4 4 3 2 2 2 1 1 0 0 -0 0 0 0 0 1 1 0 -0 -1 -0 -1 -0 0 1 0 1 2 0 1 2 1 0 2 5 5 3 0 0 1 1 2
5 4 4 3 3 2 2 1 1 1 0 -0 0 1 2 2 1 0 -0 0 1 2 1 2 2 3 3 4 3 3 2 0 2 1 1 0 1 4 5 2 1 2 1
5 4 4 3 2 2 2 2 1 1 0 -0 0 1 2 1 1 1 2 3 3 4 5 4 4 4 5 4 3 3 2 2 2 3 3 1 1 2 4 5 4 2 2
5 4 3 3 2 2 2 2 1 1 0 0 0 1 1 1 1 2 3 5 6 7 6 5 4 3 3 4 3 2 2 2 2 2 3 3 4 5 5 5 4 4 2
5 4 4 3 3 2 2 1 1 2 1 1 1 1 1 1 1 2 6 7 7 6 5 4 5 5 4 3 3 2 2 2 3 3 3 3 3 3 4 4 4 5 3
5 5 4 3 3 3 2 2 2 4 4 3 3 1 1 3 5 4 5 5 5 5 5 5 4 4 3 3 3 3 3 2 3 3 3 3 3 3 3 4 6 6 4
5 5 4 3 3 3 2 2 4 5 4 4 4 4 4 4 5 4 3 4 5 5 4 4 4 4 4 3 3 3 3 3 3 3 2 2 2 2 2 3 4 6 8
5 4 4 3 3 3 3 2 4 4 5 4 5 5 4 4 3 3 3 3 4 4 5 5 5 4 4 3 3 3 3 3 3 3 2 2 2 2 2 2 3 5 6
5 5 4 3 3 5 6 6 6 6 6 5 4 4 4 3 3 3 3 4 4 4 4 4 4 4 4 4 3 3 3 3 2 2 2 2 2 2 2 3 4 4 4
5 5 5 4 5 7 7 6 6 6 5 5 5 4 3 3 3 3 4 4 4 4 4 4 4 4 4 4 4 4 4 3 3 2 2 3 2 2 2 3 2 2 3
6 6 6 6 7 8 7 6 6 6 6 6 5 4 3 3 3 4 4 4 4 4 4 4 4 4 4 4 4 4 4 3 3 2 2 2 2 2 2 2 3 3 3
7 7 7 7 8 7 6 6 7 7 6 6 5 4 4 3 4 4 4 4 4 4 4 4 4 4 4 4 4 3 3 3 3 2 2 2 2 2 3 3 3 4 4
8 8 8 8 7 7 7 7 8 7 6 6 5 5 4 4 4 4 4 4 4 5 4 5 4 4 4 5 4 3 3 3 3 2 2 2 3 4 5 4 3 3 5
8 8 7 7 7 8 8 8 8 7 6 5 5 4 4 4 4 4 4 5 5 5 5 5 4 4 5 8 7 5 3 3 3 3 3 3 3 4 5 5 6 5 6
8 9 7 7 8 8 8 8 7 6 6 5 5 5 5 5 5 5 5 5 5 5 5 5 4 5 5 9 8 7 3 3 3 3 3 4 4 4 5 4 4 4 5
8 8 8 8 8 8 7 6 6 6 5 5 5 5 5 5 5 5 5 5 5 5 5 5 4 5 6 9 9 8 3 3 4 4 4 5 5 6 7 4 3 3 2
8 8 8 8 8 7 6 7 6 5 6 5 5 5 5 5 5 5 5 5 5 5 6 5 5 4 5 10 10 7 4 4 4 5 5 6 6 9 9 5 4 3 3
9 10 8 7 7 7 6 5 6 5 5 6 6 5 5 5 5 5 5 5 5 6 6 6 5 8 5 10 10 8 5 5 5 5 6 9 9 10 10 5 5 5 5
9 8 7 7 7 6 5 5 6 6 5 6 5 5 5 5 5 5 5 5 6 6 6 6 6 5 7 7 10 10 6 6 7 7 7 7 10 11 11 10 7 9 8
9 8 8 7 6 5 6 6 6 5 6 6 6 5 5 6 5 5 6 6 6 6 7 6 6 5 5 10 10 10 10 9 7 8 8 8 11 11 11 9 11 11 8
9 7 8 7 6 6 5 6 6 5 6 6 6 6 6 6 6 6 6 6 6 6 6 6 6 6 6 6 9 10 10 10 8 9 10 11 11 10 9 10 10 9 6
8 7 7 7 7 6 5 5 5 5 6 6 6 6 6 6 6 7 7 7 6 6 7 7 6 6 6 7 7 8 8 9 8 8 8 10 10 10 9 8 8 7 7
7 7 7 7 6 5 6 6 6 6 6 7 6 6 6 6 6 7 7 7 8 8 6 7 6 6 7 10 11 11 10 9 11 9 9 9 9 9 9 8 8 8 8
7 7 6 6 6 6 6 6 6 6 6 7 6 6 6 6 6 7 8 12 12 12 13 12 9 7 11 11 12 13 13 13 12 10 10 10 10 10 9 9 9 9 9

GFSMW_con_lsi_168.txt.gz
Lid_Strength_Index
3 2 2 1 1 1 1 1 1 0 0 0 1 0 1 0 0 -1 -1 -1 -1 -1 -1 -0 -1 -1 -0 0 0 0 1 1 0 1 1 0 -0 -0 -0 -1 -1 -1 0
3 3 2 2 2 1 1 1 1 0 0 0 -0 0 0 0 -0 -1 -1 -1 -1 -1 -1 -1 -0 -0 -0 -0 0 1 1 1 0 2 2 3 2 1 -0 -0 -1 -1 -0
4 4 3 2 2 2 1 1 1 0 -0 -0 0 0 0 0 0 0 -0 -1 -1 -1 -1 -1 -1 -0 -0 1 1 0 0 2 0 -0 2 4 4 2 -0 -0 -0 -1 -0
3 3 3 3 3 2 1 1 0 0 -0 -0 0 0 1 2 1 0 -0 -0 -1 -1 -0 -0 0 2 2 2 2 3 2 1 1 1 0 -0 1 4 4 1 0 -0 -0
3 4 3 3 2 1 1 1 0 0 -0 -0 -0 1 1 1 0 0 0 0 0 2 2 2 2 2 2 2 1 1 -0 1 1 2 2 1 0 0 2 4 2 0 -0
3 4 3 2 2 1 2 1 1 1 0 0 -0 0 0 1 1 1 1 1 3 4 3 3 2 1 1 1 1 -0 -0 0 0 1 1 2 2 2 2 3 2 2 1
4 4 3 3 2 2 2 1 1 1 0 0 0 0 0 0 1 1 1 2 3 3 3 2 1 2 1 1 0 0 0 1 1 1 1 1 1 1 1 2 2 3 1
4 4 3 3 2 2 2 1 1 1 1 1 1 0 -0 0 0 1 2 3 3 3 2 2 1 1 1 1 1 1 1 1 1 0 0 0 0 0 0 1 3 4 3
5 4 3 3 3 2 2 1 1 1 1 1 0 0 -0 -0 1 1 1 2 2 2 1 1 1 1 1 1 0 1 1 0 0 -0 -0 -0 -0 -0 0 0 1 5 6
5 4 3 3 2 2 1 1 1 1 1 0 0 0 1 0 0 1 1 1 1 2 2 2 2 2 2 1 0 1 0 0 0 -0 -0 -0 -0 -0 0 1 1 2 3
5 4 3 3 2 2 2 2 1 1 1 1 1 1 1 1 1 1 1 1 1 2 2 2 2 2 2 1 1 1 0 0 0 -0 0 0 -0 0 1 0 0 1 1
4 4 4 4 3 2 2 2 1 1 1 1 1 1 1 1 1 1 1 1 2 2 2 2 2 2 1 1 1 1 1 1 1 1 1 1 1 -0 -0 0 0 1 1
5 4 4 4 3 3 2 2 1 1 2 2 2 1 1 1 1 1 2 2 2 2 2 2 2 2 2 1 1 1 1 1 1 1 1 1 0 1 1 0 0 1 1
5 5 4 4 3 3 2 2 2 3 3 3 2 2 2 2 2 2 2 2 2 3 2 2 2 2 2 1 1 1 1 1 1 1 1 1 1 2 2 1 1 1 1
6 5 5 4 3 3 2 3 3 4 4 4 3 2 1 2 2 2 2 2 2 3 2 2 2 2 2 3 1 1 1 0 0 0 1 1 3 4 4 3 2 2 2
6 5 4 4 4 3 4 4 5 5 4 4 4 3 3 3 2 2 2 3 3 2 2 2 2 2 3 8 7 4 0 1 1 1 1 1 2 3 4 4 4 4 3
6 5 4 4 3 3 4 5 5 5 4 4 4 4 3 3 2 3 3 3 3 2 2 2 2 2 3 9 8 7 0 1 1 1 2 3 3 3 5 4 3 3 5
6 5 4 3 3 4 5 5 5 5 5 4 4 4 3 3 3 3 3 3 2 2 2 3 3 3 5 9 9 8 1 1 2 2 3 4 4 5 7 4 2 1 1
5 4 3 3 4 5 5 5 5 5 5 4 4 4 3 3 3 3 3 3 3 3 3 3 3 3 4 9 9 7 1 1 2 2 3 5 5 10 10 4 2 2 1
5 5 5 5 5 5 5 5 6 5 5 5 4 4 3 3 3 3 2 2 3 3 3 3 3 7 3 10 10 8 2 2 3 3 4 10 9 10 10 5 4 4 4
6 6 5 5 5 4 5 6 5 5 4 4 4 3 3 3 2 2 2 3 3 3 3 3 3 4 5 6 10 10 4 5 4 5 6 6 10 11 11 10 6 6 7
7 6 5 5 4 5 5 5 5 4 4 4 3 3 3 3 3 3 3 3 3 3 3 3 3 3 3 9 10 10 10 10 5 6 7 7 11 11 10 8 11 10 8
7 5 5 5 5 5 4 5 4 4 3 3 3 3 3 4 4 3 3 4 3 3 3 3 3 4 3 3 9 10 10 9 7 7 9 10 10 10 8 9 9 8 4
6 5 6 6 5 5 4 4 4 4 3 4 4 4 4 4 4 3 3 4 4 4 3 4 3 3 4 5 7 6 6 8 7 7 6 8 9 10 8 6 6 5 5
5 5 6 5 6 5 4 4 4 3 3 3 4 4 5 4 4 4 5 5 7 8 5 5 5 4 6 10 12 11 9 9 9 9 7 7 7 7 6 6 6 6 6
6 5 5 6 5 5 5 4 4 3 4 5 4 5 4 5 4 5 6 11 10 11 12 12 10 9 12 13 12 12 12 12 12 7 8 8 8 7 7 7 7 7 7

GFSMW_con_lsi_171.txt.gz
Lid_Strength_Index
3 3 3 2 2 2 1 1 1 0 0 1 1 1 1 0 -0 -1 -1 -1 -1 -1 -1 -1 -1 -1 -0 -0 -0 0 1 1 0 1 1 1 1 -0 2 -0 -1 -1 -1
3 3 3 3 2 2 1 1 1 1 0 0 0 0 0 0 -0 -0 -1 -1 -1 -1 -1 -1 -0 -1 0 0 0 0 1 1 0 2 2 3 2 1 -0 -0 -0 -1 -1
4 4 4 3 2 2 2 1 1 1 0 -1 0 0 0 0 1 0 0 -0 -1 -1 -1 -1 -0 -0 -1 0 0 0 0 2 1 -0 2 4 4 3 0 -0 -0 -1 -0
3 4 4 4 3 2 1 1 1 1 -0 -0 0 1 2 2 0 1 0 0 -1 -1 -1 -1 -0 -0 1 1 1 1 -0 0 1 1 0 -0 1 4 4 1 1 -0 -0
3 4 4 3 2 2 1 1 1 1 0 0 -0 1 1 1 1 1 0 -0 -0 0 1 1 0 -1 -0 -1 -1 -1 -0 -0 1 1 2 0 1 0 3 4 2 1 -0
3 3 3 2 2 2 1 1 1 1 0 -0 0 0 1 1 1 1 1 1 1 2 1 1 -0 -1 -1 -1 -1 -1 -1 -0 0 1 0 1 2 2 2 3 3 2 1
3 4 4 3 3 2 2 2 2 1 1 1 0 0 1 1 1 1 1 0 1 1 0 -0 -0 0 -0 -0 -1 -1 -0 -0 0 0 1 0 1 0 1 2 2 3 1
3 4 4 4 3 2 2 2 2 2 1 1 1 1 0 1 0 -0 0 0 0 1 -1 0 0 0 -0 -0 -1 0 0 -1 -0 -0 -0 0 0 0 0 1 2 4 3
4 4 4 4 3 2 2 2 2 2 1 1 1 0 0 -0 0 -0 -1 0 -1 0 0 1 1 1 0 -0 -0 0 -0 -1 -1 -1 -0 0 -0 -0 -0 0 1 3 5
4 4 4 4 3 2 2 1 1 1 1 1 0 0 0 -0 -0 -0 -0 0 0 0 1 1 1 1 1 0 -0 -0 -1 -0 -0 -0 -0 -0 -0 -0 -0 0 0 1 2
5 4 4 3 2 2 2 2 1 1 1 1 1 0 0 -0 -0 0 0 0 0 1 1 2 2 1 1 0 -0 -0 -0 -0 -0 -0 -0 -0 -1 0 0 0 0 1 1
4 4 4 4 3 2 2 2 2 1 1 1 0 0 0 -0 0 0 0 0 1 1 2 2 2 1 1 0 0 0 -0 0 0 0 -0 0 -0 -0 -0 0 1 1 0
4 5 4 4 3 3 2 2 1 1 1 1 1 0 0 0 0 0 1 1 1 1 1 1 1 1 1 0 -0 -0 -0 -0 -0 -0 0 0 0 1 1 1 1 1 1
6 5 4 3 3 3 2 2 2 1 1 1 1 1 1 0 1 1 1 1 1 1 1 1 1 1 1 0 -0 -0 -0 -0 -0 -0 -0 -0 1 2 2 3 2 1 1
6 5 4 4 3 3 2 2 1 1 1 2 2 1 1 1 1 2 1 1 1 1 1 1 1 1 2 3 2 -0 -0 -0 -0 -1 -0 -0 2 3 3 4 3 2 2
6 5 4 4 3 3 2 2 1 2 2 3 2 2 2 2 2 2 1 2 1 1 1 1 1 2 4 8 7 4 -0 -0 0 0 1 1 2 3 4 4 4 3 3
5 5 4 3 3 3 2 2 2 3 4 3 3 2 2 3 2 2 2 2 1 1 1 1 1 2 4 9 8 7 -0 -0 0 1 1 3 4 4 5 5 4 2 4
5 4 4 3 3 2 2 2 3 4 4 3 3 2 3 3 3 2 2 1 1 2 2 2 2 2 6 10 9 8 1 -0 0 1 2 3 4 7 8 5 2 1 2
4 3 3 3 2 2 3 4 4 4 4 4 4 3 3 3 3 3 2 1 1 2 2 2 2 2 5 10 10 7 -0 0 1 1 4 4 5 10 10 4 3 3 2
4 4 3 3 2 2 2 4 4 4 5 4 4 4 3 3 3 2 2 1 2 2 2 3 2 6 4 11 11 9 2 2 2 2 5 9 8 10 10 5 4 4 4
4 3 3 3 2 2 3 4 4 5 4 4 4 4 4 3 2 1 1 2 2 3 3 3 2 3 4 8 11 10 5 5 4 4 5 6 10 10 10 10 5 5 6
4 3 4 3 3 3 3 5 5 5 4 4 4 3 3 3 2 2 2 2 2 3 3 2 2 2 4 9 11 10 10 9 5 6 7 7 10 10 10 8 10 9 7
4 3 3 4 4 4 4 5 5 4 4 4 4 3 3 3 2 2 2 3 3 3 3 3 3 3 3 4 9 9 9 9 6 6 8 9 10 10 7 9 9 8 5
4 4 4 5 5 4 5 5 4 4 4 4 4 3 3 3 2 2 2 3 4 3 3 4 4 4 5 7 8 7 6 6 6 6 5 7 8 9 7 6 5 5 5
3 3 4 5 5 4 5 4 4 3 4 4 4 3 3 3 3 5 7 5 8 8 4 6 5 8 6 12 13 12 10 9 9 10 5 6 6 6 6 5 6 5 5
3 4 5 5 5 5 5 5 4 3 4 4 4 4 3 3 4 5 7 12 11 12 12 12 9 9 12 13 13 13 13 13 12 7 7 7 7 7 7 7 7 6 6

GFSMW_con_lsi_174.txt.gz
Lid_Strength_Index
3 4 3 2 2 2 2 1 1 1 1 1 1 1 2 1 0 -0 -0 -0 -1 -1 -1 -0 -0 -0 0 0 0 1 1 1 1 2 2 2 1 4 1 0 0 0 -0
4 4 3 3 3 3 2 2 1 1 1 1 1 1 1 1 0 0 1 -0 -1 -1 -0 -0 0 0 0 1 1 1 2 1 1 3 3 5 3 1 1 1 1 1 0
5 5 4 4 3 3 2 2 1 1 1 1 1 1 1 1 1 1 1 -0 -0 -1 -0 -0 -0 -0 0 1 1 1 1 3 1 1 3 5 6 4 2 1 1 1 1
5 4 4 4 3 3 2 1 1 1 1 0 1 2 2 3 2 1 1 1 0 -0 -1 0 0 1 1 1 1 0 1 1 3 2 1 1 2 5 6 2 2 1 1
4 5 4 4 3 2 2 2 1 1 1 1 1 1 2 2 2 2 2 2 1 0 1 1 0 0 0 0 0 1 1 1 2 2 2 2 2 2 4 6 3 2 1
3 4 4 3 3 2 2 2 2 1 1 1 1 1 2 2 2 2 2 2 1 1 1 1 -0 -0 -0 0 0 0 0 1 1 1 1 2 3 3 4 4 4 4 3
4 5 5 4 3 3 3 2 2 2 1 1 1 1 1 1 2 1 1 1 1 2 0 -0 -0 -0 -0 -0 -0 0 0 1 1 1 1 1 2 1 2 3 4 4 3
5 5 4 4 4 3 3 2 2 2 1 1 1 1 1 1 1 1 1 1 1 1 -0 -0 -0 -0 -0 -0 -0 0 0 0 1 1 1 1 1 1 1 2 3 5 4
5 5 4 4 3 3 3 2 2 2 2 2 1 1 1 1 1 1 1 1 0 0 -0 0 0 0 0 -0 -0 0 1 0 0 1 1 1 1 1 1 1 2 3 6
5 5 4 4 3 3 3 2 2 2 2 1 1 1 1 1 1 1 1 1 1 0 1 1 1 1 0 -0 0 0 0 1 1 1 1 1 1 1 1 1 1 2 3
5 5 4 4 3 3 2 2 2 2 2 1 1 1 1 1 1 1 0 0 0 0 1 1 1 1 1 0 0 0 0 1 1 1 1 1 1 1 1 1 1 1 2
5 5 4 4 4 3 3 3 2 2 2 1 1 1 1 1 1 1 0 0 1 1 1 1 1 1 1 0 0 1 1 1 1 1 1 1 1 2 2 2 2 2 2
5 5 5 4 4 4 3 3 2 2 1 1 1 1 1 1 1 1 1 1 1 1 1 1 1 1 1 1 0 0 0 1 1 1 1 1 2 3 3 3 4 2 2
6 5 5 5 4 4 3 3 2 2 2 1 1 2 1 1 1 1 1 1 1 1 1 1 1 1 1 2 1 0 0 0 0 0 0 1 3 4 4 5 4 3 3
6 6 6 5 4 4 3 2 2 2 1 2 2 2 1 1 1 1 1 1 1 1 1 1 2 3 4 6 5 2 1 1 1 0 2 2 2 3 4 6 6 5 4
6 6 5 4 4 4 3 3 2 2 1 2 3 2 1 1 2 2 2 2 1 1 1 1 3 4 6 8 8 6 1 0 1 1 2 2 4 5 6 5 4 4 5
6 6 5 4 4 3 3 3 3 2 3 3 3 2 2 2 3 3 2 2 1 1 1 2 3 4 6 9 9 8 4 1 1 1 3 4 5 7 8 7 4 2 4
5 5 4 4 3 3 3 3 3 3 4 4 3 2 2 3 3 3 3 2 2 2 2 2 3 5 9 10 10 9 5 0 1 2 3 5 6 8 9 8 4 3 2
4 4 3 3 3 3 3 3 3 4 4 4 3 3 3 3 3 3 3 2 3 3 3 3 3 5 8 10 10 9 4 1 2 6 6 7 7 9 10 7 5 5 4
4 4 3 3 3 3 3 4 4 5 5 3 3 3 3 3 3 2 2 2 2 3 3 3 3 6 8 11 11 10 6 4 3 6 7 8 9 10 10 8 7 7 6
4 3 3 3 3 3 3 4 5 5 4 3 3 3 3 3 3 3 3 2 2 2 3 3 3 4 7 8 11 11 8 7 5 6 7 6 9 10 10 10 7 8 8
5 4 4 3 4 3 4 5 6 4 3 3 3 3 3 3 3 4 3 3 3 3 3 3 4 5 5 8 11 11 11 9 5 6 6 6 10 10 9 9 9 9 7
5 5 5 5 5 3 4 6 5 4 4 4 4 4 3 3 3 3 4 4 2 3 3 3 4 4 5 7 10 10 10 9 8 7 7 9 9 10 7 8 8 7 5
6 6 5 6 5 4 5 5 5 4 4 4 4 4 4 4 4 4 3 3 4 3 3 4 4 6 9 10 11 9 8 8 8 9 8 7 7 8 7 6 6 6 6
5 5 6 6 5 5 6 5 5 4 4 4 4 4 4 7 8 10 7 8 11 9 7 6 9 7 10 13 13 13 11 11 11 12 6 6 6 6 7 6 6 7 7
4 5 5 5 5 6 6 5 4 4 5 5 5 5 4 5 6 7 10 13 12 13 14 13 11 12 12 12 12 12 12 12 13 8 8 8 8 8 8 8 7 7 7